Theta_e
277 277 277 277 277 277 277 277 276 276 276 275 276 276 275 275 275 275 275 274 274 275 274 273 273 273 273 273 274 274 273 273 273 273 273 273 273 274 273 273 273 273 272 272 272 272 272 273 273 273 273 274 274 275 277 278 280 280 280 282 283 285
277 277 277 277 276 276 276 276 276 275 275 275 275 276 275 274 274 274 273 273 273 273 273 273 273 273 272 273 273 273 272 273 273 273 273 273 273 273 273 273 272 272 272 272 272 272 272 272 272 273 273 274 274 275 276 277 278 279 279 281 283 285
277 277 276 276 275 276 277 275 275 275 275 274 274 274 274 273 273 273 273 273 272 272 271 271 271 271 272 272 272 272 272 272 273 273 273 273 272 273 273 273 273 273 272 272 272 272 271 271 272 272 273 273 273 273 274 274 276 277 279 281 283 285
277 276 275 275 275 275 274 274 274 274 274 273 273 273 272 272 272 272 272 271 271 271 270 270 271 271 271 270 271 271 271 271 272 272 272 272 272 273 272 272 272 272 272 272 271 271 271 271 271 272 272 272 272 272 273 274 276 278 280 281 281 282
277 276 275 275 275 275 274 274 274 273 273 273 272 272 272 271 271 271 271 270 270 270 270 270 269 269 269 269 270 270 270 271 271 272 271 271 272 272 272 272 272 272 271 271 271 271 270 271 271 271 271 271 271 271 272 274 275 275 277 278 279 281
275 275 275 275 274 274 274 274 273 273 272 272 271 271 271 271 271 270 270 269 269 269 269 268 268 268 268 268 269 269 270 270 270 271 271 272 272 272 272 271 271 271 271 270 270 270 270 270 271 271 271 271 271 271 271 272 272 272 274 277 279 280
274 275 275 274 274 274 273 273 273 272 272 271 271 271 270 270 270 269 269 268 268 268 267 267 267 267 267 268 268 268 269 269 270 271 271 271 271 271 270 270 270 269 269 269 269 269 269 269 269 269 270 270 270 270 270 271 271 272 273 275 277 280
275 274 274 274 274 273 273 272 272 271 271 270 270 270 269 269 269 268 268 267 267 266 266 266 267 267 267 267 268 268 268 269 270 270 270 270 269 269 269 268 268 268 267 268 268 268 268 268 268 269 269 269 269 270 270 270 270 271 272 273 275 277
274 274 273 273 273 272 272 271 271 269 269 269 269 268 268 268 267 267 266 266 266 266 266 266 266 266 267 267 267 268 268 268 269 269 268 268 268 267 267 267 266 267 267 267 267 267 267 267 268 268 268 269 269 269 269 269 270 271 272 273 274 276
274 273 273 273 273 272 271 270 269 269 268 268 267 267 267 267 266 266 266 265 265 265 265 265 266 266 266 267 267 267 268 268 268 267 267 266 266 265 265 265 265 265 266 266 266 266 267 267 267 267 268 268 268 268 269 269 269 270 271 272 275 277
274 273 273 273 272 271 270 269 268 268 267 267 267 266 266 266 266 265 265 265 264 265 265 265 266 266 266 266 267 267 267 266 266 265 265 265 264 264 264 264 264 264 264 265 266 266 266 267 267 267 268 267 268 268 268 269 269 270 271 272 274 277
274 273 272 271 270 269 268 268 267 267 267 267 266 266 266 265 265 264 264 264 264 264 265 265 265 265 266 266 265 265 265 264 264 264 263 263 263 263 263 263 264 264 264 264 265 266 266 267 267 269 272 273 270 270 270 270 270 271 272 273 275 277
274 272 271 271 269 268 267 267 266 266 266 266 265 265 265 265 264 264 263 263 264 264 264 264 264 265 264 264 264 263 263 263 262 262 261 261 262 262 262 263 263 263 264 265 265 265 266 267 268 272 274 275 276 273 272 272 272 273 273 274 275 276
272 272 271 270 269 267 266 266 266 266 265 265 264 264 264 264 263 263 263 263 263 264 264 264 264 263 262 262 262 262 261 261 260 260 260 260 260 261 262 262 263 263 264 265 265 266 266 267 270 273 274 275 276 276 273 272 272 273 273 275 276 277
273 272 271 269 267 267 266 266 265 265 264 264 264 264 263 263 262 262 262 263 263 263 263 263 262 261 261 261 261 260 260 259 259 259 259 259 260 261 261 262 263 263 264 265 265 266 267 267 271 273 274 275 276 277 276 273 273 272 273 274 275 277
272 272 270 268 267 267 266 266 265 264 264 264 263 263 262 262 262 262 262 262 262 262 262 261 260 260 259 260 259 259 259 258 258 259 260 260 261 261 262 262 263 263 264 265 265 266 267 267 271 274 275 276 276 277 277 273 273 273 273 274 275 277
272 270 268 267 267 266 265 264 264 263 263 263 262 262 261 261 261 261 261 261 261 261 260 260 259 259 258 258 258 258 258 258 258 259 260 260 261 262 262 262 263 264 265 265 266 266 267 267 273 274 276 277 277 278 278 274 274 274 274 274 275 277
270 269 268 267 266 265 264 263 263 262 261 262 261 261 260 260 260 260 260 260 260 260 260 259 258 258 257 257 257 257 257 258 258 259 260 261 262 262 263 263 263 263 264 265 266 267 267 268 273 275 276 277 277 278 275 275 274 274 274 275 276 277
269 268 266 265 264 264 263 262 262 261 260 260 259 259 260 260 259 259 259 259 259 259 258 258 257 256 256 257 257 257 257 258 259 260 261 261 261 261 261 262 263 263 264 265 266 266 267 268 271 275 276 277 278 277 275 274 274 274 274 275 277 279
267 266 264 264 263 263 262 261 260 260 259 259 259 259 259 259 258 259 258 258 258 258 257 257 256 256 256 256 256 257 258 259 260 261 261 261 260 260 261 262 262 263 264 265 265 266 267 268 272 275 277 278 279 278 275 274 274 274 274 276 277 279
265 264 264 263 262 262 261 260 259 259 258 259 258 258 258 258 258 258 257 257 258 257 256 256 256 256 256 256 257 257 258 259 260 260 261 261 261 261 261 262 262 262 263 265 266 269 268 268 271 275 277 278 279 278 277 276 275 274 274 275 276 278
264 263 262 261 261 261 260 259 258 257 258 258 257 257 257 257 257 257 258 257 257 256 256 256 255 256 256 256 257 258 259 260 260 260 260 260 260 260 261 261 261 262 263 264 265 266 267 268 269 272 276 278 279 280 279 277 275 274 274 275 276 277
263 262 262 261 260 260 259 258 257 257 257 257 257 256 256 257 257 257 256 256 255 255 255 255 255 255 256 257 257 259 259 260 260 260 260 259 260 260 260 260 261 262 262 264 265 266 267 269 270 271 276 277 278 279 279 278 277 276 276 276 276 277
262 261 261 260 259 259 258 257 257 257 256 256 255 256 257 257 256 256 255 254 254 254 254 254 255 256 257 257 258 258 258 259 259 259 259 260 259 259 259 260 261 261 262 264 265 266 268 270 273 271 274 276 278 279 280 278 279 280 278 277 277 278
261 260 259 259 258 259 258 256 256 255 255 255 255 256 256 256 255 254 254 253 253 253 254 254 255 256 257 257 258 258 258 258 259 259 259 259 259 259 259 260 261 262 262 263 265 267 268 269 271 274 273 275 277 278 279 280 280 282 281 279 278 278
260 259 258 258 258 257 257 255 254 255 254 254 256 256 255 254 254 253 252 252 252 253 253 254 255 256 257 257 258 257 257 258 258 258 259 259 259 259 259 260 261 262 262 263 265 267 268 269 269 271 273 273 276 277 279 280 281 281 280 281 281 281
258 257 257 257 256 257 256 256 253 253 253 255 255 254 254 253 252 251 251 251 252 252 253 254 255 256 257 257 257 257 257 257 258 257 258 259 260 260 260 261 261 262 263 264 264 266 267 268 268 269 271 274 275 277 278 279 280 280 281 280 281 283
256 256 255 256 256 256 255 255 254 251 253 254 254 254 253 251 250 250 250 251 252 252 253 254 255 257 257 257 257 257 257 257 258 258 259 260 260 260 260 261 262 263 264 264 265 266 266 267 267 268 269 271 273 275 276 277 278 279 280 280 280 283
255 255 255 254 255 255 255 254 254 254 254 253 253 253 251 249 249 250 250 250 251 252 253 254 256 256 256 256 257 257 257 258 258 259 259 260 260 260 261 262 263 263 263 264 265 265 265 266 266 267 268 270 271 272 274 274 275 277 278 279 280 282
256 255 254 255 255 255 254 253 253 252 252 252 252 250 249 249 249 249 249 250 251 253 254 255 257 256 255 256 256 256 256 257 258 259 259 260 260 261 262 263 263 263 264 264 264 264 264 265 266 267 268 270 271 272 273 273 274 274 276 277 279 281
255 254 255 255 255 254 253 252 252 251 252 252 250 249 248 249 249 249 249 251 252 253 255 255 255 255 255 255 256 256 257 257 258 260 261 262 263 264 264 264 264 264 265 266 264 264 263 264 265 267 273 271 274 272 272 272 273 274 275 277 280 280
255 254 254 254 254 253 252 251 251 251 253 250 249 248 246 248 248 248 249 251 252 253 254 254 254 255 255 255 255 255 256 260 264 263 261 262 266 269 270 270 265 266 266 266 266 266 265 265 267 272 274 273 274 275 275 276 277 278 278 280 282 281
254 253 253 254 253 252 251 250 250 250 250 251 251 249 247 247 248 248 249 251 251 254 254 254 254 255 255 255 255 255 255 255 257 262 265 267 267 268 269 269 270 270 271 268 265 267 270 271 272 272 273 273 273 274 274 275 276 277 278 281 281 280
254 253 253 254 252 251 250 250 249 249 249 249 248 248 247 247 247 247 249 250 252 254 254 254 254 254 254 255 255 254 254 254 254 255 261 265 266 267 268 268 269 269 270 271 270 268 265 268 270 272 272 272 272 272 273 273 274 276 276 279 283 280
255 254 254 252 251 250 250 249 248 249 249 248 247 248 247 247 247 247 248 250 252 254 254 254 253 254 254 254 254 253 254 253 253 253 253 257 263 265 265 266 267 268 269 270 271 271 270 269 270 271 271 271 271 271 271 271 272 274 274 273 272 277
254 253 252 251 250 250 248 248 248 248 249 249 248 246 244 245 246 247 248 250 253 253 252 253 253 253 253 254 254 254 253 253 253 253 253 253 254 256 260 263 265 266 267 268 269 270 269 269 269 270 270 270 270 270 269 269 266 271 271 269 265 267
253 252 252 252 251 250 249 248 248 248 248 246 245 244 244 245 247 248 251 254 255 252 252 252 253 253 253 253 254 253 253 253 253 253 253 253 253 253 253 253 255 260 265 263 265 268 268 268 268 268 269 269 269 268 267 266 260 259 260 261 262 264
252 252 252 251 250 249 245 247 249 249 247 245 244 244 244 245 248 248 250 252 253 253 252 252 251 252 252 254 253 253 253 253 253 253 252 253 253 253 253 253 254 255 260 265 265 268 267 267 267 267 267 267 267 267 264 256 257 257 258 259 260 261
Wind_Speed
7 7 7 6 5 4 4 3 2 2 3 3 4 7 7 6 5 5 6 6 7 6 7 8 9 8 9 9 11 11 10 12 11 11 13 12 13 11 11 13 15 13 13 11 13 13 15 14 13 14 14 14 16 16 13 12 10 12 14 12 13 14
7 8 7 6 5 4 3 3 2 3 3 3 5 6 4 5 7 6 7 7 7 8 9 8 8 9 9 10 10 11 11 11 10 13 12 11 11 13 15 15 13 14 14 13 13 15 16 18 18 17 17 16 15 15 14 12 12 15 15 14 14 12
7 6 5 4 3 2 1 3 3 3 3 5 4 5 7 7 7 7 7 8 8 9 10 10 10 11 10 11 10 11 11 11 12 12 12 13 14 14 15 16 18 16 15 17 18 17 19 18 18 16 16 16 16 15 16 17 18 17 15 14 15 14
6 5 2 2 2 3 3 3 2 4 5 3 4 4 4 6 8 7 8 7 8 9 10 11 10 10 10 12 12 13 12 12 12 13 14 15 16 14 19 17 19 16 19 18 18 18 19 19 18 17 16 16 16 16 14 16 18 16 14 12 13 14
7 6 5 5 5 4 3 3 4 4 3 3 4 5 6 5 7 7 7 8 9 10 10 10 10 10 12 12 12 12 13 13 14 13 16 16 17 17 14 18 16 21 17 20 18 19 19 18 18 16 17 17 18 18 18 16 15 15 15 14 14 13
4 3 4 4 4 4 5 5 3 2 3 3 3 5 7 6 6 7 8 8 9 9 10 10 10 12 11 12 11 13 14 13 14 15 14 18 15 14 19 14 20 17 20 17 20 17 18 18 17 18 17 18 18 18 19 18 16 16 18 17 13 12
5 6 6 6 5 4 4 3 2 2 3 2 4 5 5 6 6 7 7 8 10 10 10 11 11 11 12 13 12 14 14 14 15 13 18 16 16 19 15 19 16 19 17 17 17 19 18 18 19 19 19 18 17 18 18 18 17 17 17 17 16 14
7 5 6 6 5 5 3 2 2 2 3 3 3 4 5 6 6 6 8 8 9 11 11 11 11 12 13 14 14 14 15 15 15 19 15 16 20 17 19 17 18 16 19 19 18 18 18 18 18 19 19 19 18 18 18 18 18 18 18 17 17 16
8 9 7 6 5 3 3 2 2 3 4 4 3 3 4 6 5 7 7 9 9 10 11 11 12 12 13 13 14 14 14 15 17 15 18 18 15 20 19 20 19 18 18 19 18 19 19 19 18 18 19 18 18 18 19 19 18 18 17 17 17 17
8 7 6 5 4 3 2 2 2 3 4 4 3 4 4 5 6 7 8 9 10 9 11 11 11 12 13 13 14 15 16 17 15 17 18 15 19 18 19 19 19 19 18 19 18 18 18 18 18 18 18 18 18 18 18 18 18 18 18 18 17 16
8 7 6 5 3 3 2 2 3 3 3 3 4 4 4 4 6 8 9 9 10 11 11 12 11 11 11 11 12 13 15 14 16 16 16 16 17 16 18 19 19 20 21 20 19 19 18 17 17 14 15 16 17 17 18 18 18 19 18 17 17 16
7 6 5 3 3 3 3 3 3 3 3 4 4 3 3 6 7 8 10 10 10 11 11 11 11 11 11 11 14 14 12 14 13 13 13 13 13 14 15 16 18 18 19 20 19 18 16 15 14 18 27 25 18 16 15 16 17 17 17 17 16 15
6 5 4 4 3 4 3 3 3 3 5 4 2 4 5 6 7 7 9 10 10 10 10 11 10 11 12 11 13 12 13 14 12 14 14 15 13 15 14 17 18 18 18 19 18 18 16 15 14 25 26 27 29 22 18 17 17 17 18 18 17 16
6 6 5 4 4 3 3 2 3 5 5 2 4 5 6 6 7 8 9 9 11 10 10 11 11 13 11 14 13 12 14 12 15 13 14 14 14 14 14 16 17 18 17 16 17 18 17 16 22 27 27 27 28 26 19 17 16 16 17 17 17 16
8 7 5 4 4 3 3 2 4 4 2 4 5 5 6 6 7 8 9 10 10 10 10 10 11 12 13 13 11 13 12 14 15 14 14 14 14 14 16 16 16 17 17 17 17 17 17 17 24 26 28 27 28 29 25 17 17 16 17 18 18 16
6 6 6 5 4 3 2 3 3 1 2 4 4 5 6 7 8 7 9 9 9 11 11 11 11 12 11 11 12 14 12 14 12 14 13 13 14 14 16 16 17 17 16 16 17 16 16 18 23 28 28 29 29 29 26 19 18 17 18 19 18 16
8 8 6 5 4 3 3 3 1 1 4 5 5 4 5 5 6 7 8 9 10 11 11 12 11 11 12 12 13 13 14 12 13 14 12 13 14 16 16 15 16 16 16 17 16 16 16 17 27 27 29 29 30 29 25 18 16 15 17 18 18 18
11 10 7 5 3 3 3 1 2 4 5 4 4 4 3 4 5 7 8 10 11 11 11 13 13 13 12 14 14 13 15 13 13 14 16 13 13 14 15 16 15 17 17 17 17 17 18 19 28 27 29 30 28 28 16 14 14 14 16 17 17 17
10 8 7 5 4 4 2 2 4 5 4 4 3 3 4 5 6 7 9 10 11 11 11 12 13 14 13 14 15 15 14 14 16 14 12 15 16 16 16 16 16 15 16 18 17 18 18 19 24 28 29 29 28 22 12 13 11 13 14 16 16 15
8 7 7 7 5 3 2 3 5 5 3 3 4 5 6 5 7 8 8 10 10 11 11 11 12 13 14 13 14 16 14 14 13 13 12 15 17 17 16 16 15 16 15 17 18 18 18 19 24 30 29 29 27 21 13 10 10 12 13 13 15 14
9 8 7 6 5 3 4 5 4 3 3 3 4 4 5 6 8 8 9 10 11 11 11 11 12 13 14 14 15 14 16 15 14 14 14 13 14 15 15 15 15 15 15 15 17 25 23 18 21 28 27 28 27 20 11 9 8 11 13 12 13 13
10 8 6 6 5 4 5 4 3 3 2 3 3 4 5 6 7 8 9 11 11 11 11 11 12 13 13 15 15 15 13 13 13 14 14 13 12 13 14 14 14 16 15 16 16 16 17 18 17 20 28 28 27 26 14 8 8 10 13 14 13 12
6 7 7 5 5 5 3 3 3 3 3 2 3 5 5 6 7 8 9 10 10 11 12 11 11 14 14 12 13 13 13 12 13 14 14 14 12 13 14 15 15 15 15 14 15 15 16 14 17 19 28 27 28 27 23 10 9 10 12 12 13 12
8 7 7 5 6 4 3 3 4 3 2 3 5 4 6 6 7 8 9 10 10 11 11 11 12 11 11 12 12 13 13 12 12 11 13 12 12 15 15 15 14 14 15 14 14 15 15 16 22 18 23 26 27 28 28 16 11 12 12 10 13 12
8 7 7 6 4 4 3 4 5 4 3 4 3 5 6 6 7 8 9 9 10 10 11 11 12 12 10 11 12 13 14 12 12 13 12 12 13 14 15 15 14 15 15 14 12 12 14 15 14 21 21 27 28 29 28 27 21 23 13 12 11 11
7 7 7 6 4 3 3 5 5 3 3 3 4 5 5 5 6 7 8 8 9 10 10 11 11 10 10 11 12 12 12 13 13 12 11 12 12 12 13 14 15 15 15 14 12 13 12 12 14 19 25 24 29 28 29 27 27 26 15 11 10 12
10 8 7 6 4 4 4 3 5 4 5 3 3 4 5 7 7 7 8 9 9 9 9 10 10 10 9 10 11 13 12 13 12 12 11 11 11 12 13 13 12 10 10 13 14 13 14 14 14 14 19 27 28 30 29 29 29 27 25 14 9 10
8 9 9 5 4 3 3 3 5 6 3 2 3 4 4 5 7 7 8 8 8 9 9 9 9 9 10 10 9 11 10 11 12 12 12 11 11 13 13 12 9 11 13 12 13 14 16 15 14 15 16 18 21 22 26 29 28 27 26 22 15 19
10 9 8 5 3 3 3 4 5 5 2 3 4 4 4 4 5 7 7 8 9 8 7 8 8 10 10 10 8 8 10 11 11 11 11 11 12 11 9 8 13 13 13 12 13 15 15 14 14 15 15 14 14 14 15 15 16 22 22 14 11 14
10 9 7 6 3 3 3 3 4 3 2 3 3 3 4 4 5 6 7 9 8 7 7 7 10 10 9 11 11 10 9 11 11 11 12 11 11 9 9 10 13 13 13 12 15 14 14 13 13 14 14 15 15 15 15 14 14 14 12 13 12 11
10 8 8 6 4 3 3 4 3 3 3 3 3 4 4 5 5 6 7 7 6 7 6 6 7 8 8 9 10 9 9 10 12 12 12 13 11 13 14 11 11 13 13 11 13 15 14 14 13 14 24 22 26 22 18 17 15 13 12 15 20 15
10 9 8 5 4 3 3 4 3 2 3 2 2 3 4 4 6 6 6 6 6 6 6 6 7 7 7 8 9 10 11 12 16 14 11 11 21 27 27 25 15 16 15 12 12 13 16 15 17 29 33 31 31 31 30 28 28 25 20 23 26 16
8 9 7 5 4 3 3 3 2 1 2 1 2 3 3 4 4 5 5 5 5 7 6 6 7 7 7 7 8 9 10 12 11 14 20 22 24 24 26 26 28 29 29 20 15 17 28 29 31 33 32 33 32 32 31 28 26 26 27 24 14 10
8 8 8 5 4 4 3 2 1 1 1 1 2 2 3 4 4 5 5 5 5 6 6 5 6 7 7 8 8 9 10 10 12 15 15 18 21 23 24 25 29 31 29 30 29 24 15 25 31 33 33 32 33 32 31 29 26 28 30 28 11 9
7 6 6 6 5 4 3 3 0 0 1 1 1 1 3 5 4 5 5 5 5 5 6 6 6 6 7 8 9 10 10 10 11 13 16 19 20 21 18 23 28 30 31 30 32 36 30 30 30 34 34 33 33 34 31 29 24 28 30 29 16 7
7 6 6 6 5 5 3 3 1 0 0 1 1 2 3 4 5 4 4 4 5 5 5 5 5 6 6 6 7 8 9 9 10 11 12 14 17 21 23 25 29 30 33 30 30 34 34 33 33 34 34 34 34 34 32 25 19 31 31 25 13 11
9 7 7 7 6 5 4 2 1 0 0 0 1 2 3 4 5 3 5 8 6 3 4 4 5 5 6 6 6 7 8 9 9 10 11 12 13 14 14 15 18 23 30 25 22 31 35 34 35 35 34 34 33 35 33 28 22 18 18 18 15 12
7 9 7 6 6 5 4 3 2 1 0 1 1 1 3 4 3 2 3 4 3 3 3 4 4 5 5 5 6 6 6 7 8 10 9 10 10 10 12 13 13 13 18 27 25 32 32 35 33 32 33 31 35 34 35 19 15 15 14 13 13 11
Wind_Direction
199 201 208 215 212 215 212 216 246 258 262 264 266 272 273 281 297 302 303 301 301 301 304 305 307 303 299 296 293 292 289 289 289 286 285 286 287 287 288 290 290 287 284 278 280 282 282 279 273 276 276 272 272 268 262 261 262 265 268 270 273 278
200 201 207 216 216 208 198 210 235 259 263 271 267 264 276 305 311 312 309 306 303 305 306 304 303 301 298 297 298 294 291 289 287 286 287 286 290 292 291 288 285 284 283 285 285 288 289 286 285 280 278 278 280 284 284 282 278 273 271 273 273 273
206 216 211 213 209 181 188 211 234 257 262 254 267 302 317 318 313 312 308 309 308 310 309 309 311 307 304 300 297 294 291 290 290 291 290 294 292 294 291 293 294 289 288 291 290 290 290 287 283 281 280 279 277 277 280 283 279 275 271 266 270 276
209 215 193 177 174 209 218 234 242 257 249 267 311 313 312 311 311 309 309 310 308 309 308 308 307 303 306 305 303 298 297 296 296 297 297 294 293 296 297 294 297 292 294 290 289 288 287 282 281 279 279 276 278 278 280 276 268 262 265 274 278 280
201 200 188 189 192 209 218 233 234 252 288 325 317 314 305 305 301 306 307 306 308 307 307 307 307 309 308 306 302 299 300 301 300 300 298 296 301 296 295 296 294 295 292 291 287 288 285 281 280 279 278 276 276 276 275 275 287 290 283 276 274 277
183 161 179 199 211 213 227 229 245 283 311 314 310 300 302 303 308 310 309 307 306 307 308 310 311 310 308 306 305 302 303 302 301 300 295 299 294 299 298 297 297 295 294 290 288 284 285 283 282 280 277 274 273 274 275 277 279 281 281 279 269 267
183 198 195 197 206 212 223 234 265 294 291 306 294 289 296 305 306 306 305 307 309 312 314 313 314 311 311 308 306 304 304 304 303 302 302 300 301 300 301 298 298 294 293 291 289 287 287 286 284 282 279 276 274 273 274 273 274 272 271 272 275 273
198 192 194 195 201 208 220 238 251 276 281 279 279 288 304 303 299 300 311 313 314 316 316 316 316 315 314 311 308 307 307 305 306 307 303 305 302 303 300 299 296 295 292 290 289 287 286 284 281 278 277 275 273 271 270 270 268 268 266 266 268 270
196 197 193 192 197 204 208 217 255 271 276 276 281 286 288 290 299 311 315 317 317 315 317 317 317 316 312 311 309 308 306 306 307 306 306 306 303 301 301 299 296 292 291 289 287 284 283 281 279 277 275 274 272 271 269 268 267 265 265 263 260 256
197 192 189 189 201 203 217 226 238 259 263 282 294 290 287 297 316 320 322 323 319 318 317 318 316 313 310 308 307 305 306 307 306 307 306 306 303 301 299 298 297 294 290 289 285 282 280 276 276 274 272 269 268 268 267 266 268 266 264 263 258 254
195 190 185 190 181 205 234 256 265 263 280 275 275 270 285 320 327 327 327 324 321 320 319 316 314 309 305 303 301 303 308 308 306 304 303 302 300 297 297 296 294 292 290 285 282 280 275 273 271 271 268 265 263 262 264 264 264 265 264 260 258 255
188 181 178 176 183 206 236 259 259 269 272 267 262 285 332 347 338 332 326 322 320 317 315 311 307 307 305 308 311 310 308 306 305 304 300 296 291 289 288 288 288 285 285 285 283 279 275 271 269 268 267 265 262 260 261 260 261 263 265 265 263 258
180 166 168 186 186 205 230 244 259 263 256 255 287 348 353 349 335 328 323 319 317 315 312 311 308 310 311 312 310 309 308 309 307 303 299 297 292 290 290 292 291 288 286 285 283 282 277 271 268 269 268 268 267 266 266 264 264 261 260 260 260 259
175 177 187 184 187 201 221 255 261 249 249 286 356 359 350 344 334 326 324 320 318 315 312 311 312 313 312 315 312 311 309 305 304 300 299 296 295 292 292 290 290 291 290 286 282 280 277 274 270 272 273 271 269 268 266 265 265 266 267 265 260 259
183 179 174 167 178 193 211 225 248 251 302 4 4 357 349 340 335 330 323 320 315 311 312 315 315 314 313 312 311 309 306 306 302 301 301 298 296 294 293 295 295 293 289 283 282 279 278 277 274 275 273 273 273 270 266 265 264 264 263 264 264 260
160 157 160 160 161 174 183 221 234 269 20 23 5 357 347 338 335 329 320 317 317 318 319 318 317 313 311 311 308 307 303 305 301 300 296 294 298 295 295 295 293 291 286 283 280 278 276 276 277 276 274 272 272 271 268 264 263 262 262 261 260 258
151 141 141 150 164 175 192 226 229 18 33 28 6 355 341 340 332 329 326 323 323 323 322 320 316 310 312 312 309 306 305 303 304 303 301 302 298 305 308 309 308 305 299 294 284 275 275 277 278 279 277 277 276 272 269 264 260 260 259 256 256 258
149 144 149 152 160 176 193 209 27 37 35 18 6 349 344 341 336 329 331 329 326 325 324 324 318 314 312 313 312 308 308 308 306 307 309 306 312 313 311 309 307 306 304 300 297 291 280 279 281 284 285 284 281 274 268 264 259 260 263 260 253 247
120 131 141 156 157 163 175 71 49 48 33 22 1 358 350 348 345 339 336 325 323 322 323 322 317 313 312 312 311 309 310 313 314 313 315 316 317 317 315 313 309 308 306 303 296 293 292 284 282 286 289 288 281 275 265 260 254 258 257 260 261 257
120 139 147 148 136 132 104 67 54 48 37 20 4 3 353 354 346 339 331 324 321 322 322 318 314 310 310 311 310 310 310 310 308 312 319 317 318 317 316 314 310 308 306 302 299 295 295 291 286 290 295 295 292 281 260 239 243 248 256 258 257 256
141 141 140 138 142 116 93 74 67 59 43 20 10 1 355 352 342 337 330 322 320 321 317 313 311 308 308 309 309 310 311 313 316 316 316 314 312 311 313 313 309 306 303 300 298 299 300 297 297 298 301 301 296 289 263 249 227 247 251 254 260 258
131 131 135 140 129 107 84 75 82 76 58 31 5 9 354 347 341 329 326 319 318 315 311 309 307 306 306 307 307 308 308 312 314 317 315 314 313 311 312 309 307 305 303 304 302 296 293 293 291 296 302 306 308 307 297 232 221 232 245 248 252 254
132 136 140 134 118 99 87 91 90 75 57 30 19 12 351 343 335 333 325 317 313 309 306 306 305 305 304 301 303 305 310 315 315 315 316 315 313 310 308 307 306 304 302 302 296 291 291 289 296 301 305 307 308 307 307 287 237 229 235 240 244 244
121 126 120 113 102 94 95 97 90 73 59 26 21 3 339 345 341 331 322 314 309 304 304 304 303 300 301 304 307 313 314 315 312 312 314 313 312 312 308 307 306 305 305 301 294 292 294 298 303 304 304 306 310 312 310 305 283 252 235 243 240 243
139 142 126 106 97 94 96 92 79 66 53 36 16 351 346 348 339 326 317 309 304 306 304 304 305 307 309 311 314 315 316 317 319 319 316 314 314 310 310 309 309 311 311 307 293 295 302 309 312 315 314 312 311 310 311 311 312 308 296 242 233 235
141 131 115 107 102 99 89 88 81 73 58 43 6 351 350 343 332 321 313 307 305 304 304 305 306 305 310 316 319 319 317 321 323 322 319 318 316 316 313 314 309 308 311 310 309 309 310 321 321 313 313 311 311 314 313 312 311 311 308 291 240 239
142 127 112 104 99 99 88 83 91 75 61 21 10 357 353 336 327 320 308 305 303 302 300 303 308 312 319 324 325 325 326 325 328 324 325 322 323 321 313 302 296 293 300 319 313 314 327 326 319 314 314 315 313 313 314 316 315 314 313 309 296 252
119 115 111 103 107 96 95 76 79 75 44 14 7 1 351 328 320 313 307 304 303 302 303 311 316 321 325 328 329 324 322 323 325 325 324 327 328 322 311 299 299 321 325 316 312 330 330 326 323 321 320 317 313 313 313 315 313 311 311 307 293 288
115 113 120 118 110 102 86 83 71 72 52 22 4 360 337 321 310 305 306 307 304 303 307 321 331 332 332 333 334 327 325 327 324 324 328 328 325 312 296 304 333 329 325 308 327 334 329 326 326 325 320 317 316 314 313 313 310 310 310 306 303 306
122 125 126 120 122 106 94 85 76 70 56 31 8 351 335 323 314 309 306 303 302 307 314 328 336 338 334 335 336 336 332 329 326 330 334 330 325 307 313 328 335 331 321 328 339 331 328 326 327 324 318 322 323 319 314 307 304 302 295 296 292 294
124 130 121 119 119 111 101 79 73 67 47 24 2 345 341 325 317 308 300 299 306 313 325 335 337 336 336 330 333 332 331 326 327 330 325 331 324 334 339 334 330 334 329 328 340 331 333 333 330 326 332 330 328 325 320 314 309 298 288 280 279 285
129 129 122 122 123 115 98 88 77 57 46 24 352 345 340 320 313 307 304 306 310 312 331 340 338 336 335 334 332 331 326 330 337 331 328 327 340 346 349 353 348 347 339 340 347 340 341 334 333 336 339 338 334 331 326 320 315 311 306 292 274 262
121 119 119 129 128 118 106 94 83 71 28 32 357 343 325 307 305 301 299 315 317 324 345 335 339 336 333 335 334 334 331 327 330 338 339 339 344 348 351 354 354 354 354 355 349 348 351 345 343 346 345 344 342 338 338 334 332 334 330 318 278 250
133 134 137 137 134 124 112 98 93 89 6 15 4 332 305 294 283 291 299 309 306 324 342 340 338 335 334 335 338 338 337 336 333 330 338 343 344 349 352 354 356 356 355 357 1 359 349 353 351 352 352 352 350 347 348 346 341 353 354 347 281 230
137 130 131 131 134 123 120 122 154 137 38 15 352 335 306 291 285 283 302 304 312 325 338 342 341 341 336 334 340 341 345 342 343 340 334 336 341 350 359 356 356 356 356 355 0 4 0 358 355 357 358 359 358 356 354 353 354 10 10 12 16 347
123 127 134 136 133 132 131 141 189 149 40 36 337 320 279 278 274 276 274 293 305 329 332 341 340 339 333 329 338 340 344 341 341 337 334 336 340 345 349 355 358 356 354 357 359 4 0 1 359 1 2 3 4 2 0 357 6 16 17 22 11 6
125 130 138 139 131 134 141 163 195 154 101 3 317 316 294 279 280 282 299 307 318 333 328 336 339 334 326 330 341 341 341 340 339 338 339 342 342 342 345 337 340 347 351 355 352 4 3 1 1 3 4 6 8 10 2 13 22 5 359 4 3 358
127 128 133 128 134 138 156 175 179 107 113 329 326 315 283 281 283 305 300 308 311 340 338 343 334 329 326 335 338 336 331 335 339 342 339 334 334 335 337 336 339 334 332 347 354 6 4 1 359 3 5 10 15 14 13 15 3 2 358 359 354 346